Change the Weather History Date:

Thursday, November 14, 2013

  Actual Average Record
Temperature  
Mean Temperature 41 °F 42 °F  
Max Temperature 54 °F 51 °F 73 °F (1993)
Min Temperature 27 °F 34 °F 11 °F (1986)
Degree Days  
Heating Degree Days 24 23  
Month to date heating degree days 316 287  
Since 1 July heating degree days 823 894  
Cooling Degree Days 0 0  
Month to date cooling degree days 0 0  
Year to date cooling degree days 695 522  
Moisture  
Dew Point 14 °F    
Average Humidity 42    
Maximum Humidity 69    
Minimum Humidity 15    
Precipitation  
Precipitation 0.00 in 0.11 in 2.25 in (1972)
Month to date precipitation 0.45 1.46  
Year to date precipitation 25.43 28.44  
Sea Level Pressure  
Sea Level Pressure 30.27 in    
Wind  
Wind Speed 12 mph (SW)    
Max Wind Speed 22 mph    
Max Gust Speed 26 mph    
Visibility 10 miles    
Events      
T = Trace of Precipitation, MM = Missing Value Source: NWS Daily Summary

Daily Weather History Graph

Daily Weather History Graph

Search for Another Location

Airport or City:

Trip Planner

Search our weather history database for the weather conditions in past years. The results will help you decide how hot, cold, wet, or windy it might be!

Date:

Astronomy

Nov. 14, 2013 Rise Set
Actual Time 6:58 AM EST 4:56 PM EST
Civil Twilight 6:29 AM EST 5:25 PM EST
Nautical Twilight 5:56 AM EST 5:58 PM EST
Astronomical Twilight 5:24 AM EST 6:30 PM EST
Moon 3:17 PM EST (11/14) 3:51 AM EST (11/14)
Length of Visible Light 10h 56m
Length of Day
9h 58m
Waxing Gibbous, 91% of the Moon is Illuminated
Nov 14
Waxing Gibbous
Nov 17
Full
Nov 25
Last Quarter
Dec 2
New
Dec 9
First Quarter

Hourly Weather History & Observations

Time (EST) Temp. Windchill Dew Point Humidity Pressure Visibility Wind Dir Wind Speed Gust Speed Precip Events Conditions
12:53 AM 28.9 °F 19.8 °F 19.0 °F 67% 30.33 in 10.0 mi SW 10.4 mph - N/A   Clear
1:53 AM 30.0 °F 19.1 °F 17.1 °F 59% 30.31 in 10.0 mi WSW 15.0 mph - N/A   Clear
2:53 AM 28.0 °F 20.8 °F 18.0 °F 66% 30.31 in 10.0 mi SSW 6.9 mph - N/A   Clear
3:53 AM 27.0 °F 17.3 °F 18.0 °F 69% 30.30 in 10.0 mi SSW 10.4 mph - N/A   Clear
4:53 AM 30.0 °F 19.5 °F 16.0 °F 56% 30.30 in 10.0 mi SW 13.8 mph - N/A   Clear
5:53 AM 30.0 °F 20.5 °F 15.1 °F 54% 30.31 in 10.0 mi SW 11.5 mph - N/A   Clear
6:53 AM 30.9 °F 21.2 °F 12.9 °F 47% 30.32 in 10.0 mi SSW 12.7 mph - N/A   Clear
7:53 AM 34.0 °F 24.6 °F 12.9 °F 42% 30.34 in 10.0 mi WSW 13.8 mph - N/A   Clear
8:53 AM 36.0 °F 28.5 °F 14.0 °F 41% 30.33 in 10.0 mi SW 10.4 mph - N/A   Clear
9:53 AM 39.9 °F 33.4 °F 10.0 °F 29% 30.32 in 10.0 mi SW 10.4 mph - N/A   Clear
10:53 AM 43.0 °F 35.4 °F 10.9 °F 27% 30.31 in 10.0 mi SW 16.1 mph - N/A   Clear
11:53 AM 43.0 °F 35.7 °F 10.9 °F 27% 30.28 in 10.0 mi SW 15.0 mph - N/A   Clear
12:53 PM 48.0 °F - 12.9 °F 24% 30.25 in 10.0 mi SW 15.0 mph - N/A   Clear
1:53 PM 53.1 °F - 6.1 °F 15% 30.22 in 10.0 mi West 16.1 mph - N/A   Clear
2:53 PM 53.1 °F - 6.1 °F 15% 30.21 in 10.0 mi West 6.9 mph - N/A   Clear
3:53 PM 50.0 °F - 9.0 °F 19% 30.22 in 10.0 mi WSW 9.2 mph - N/A   Clear
4:53 PM 42.1 °F 36.1 °F 16.0 °F 35% 30.23 in 10.0 mi SSW 10.4 mph - N/A   Clear
5:53 PM 42.1 °F 36.1 °F 16.0 °F 35% 30.24 in 10.0 mi SSW 10.4 mph - N/A   Clear
6:53 PM 44.1 °F 38.1 °F 17.1 °F 34% 30.24 in 10.0 mi SSW 11.5 mph - N/A   Clear
7:53 PM 43.0 °F 38.8 °F 16.0 °F 34% 30.23 in 10.0 mi SW 6.9 mph - N/A   Clear
8:53 PM 41.0 °F 35.2 °F 17.1 °F 38% 30.22 in 10.0 mi WSW 9.2 mph - N/A   Clear
9:53 PM 44.1 °F 38.6 °F 16.0 °F 32% 30.22 in 10.0 mi WSW 10.4 mph - N/A   Clear
10:53 PM 44.1 °F 37.4 °F 15.1 °F 31% 30.21 in 10.0 mi WSW 13.8 mph - N/A   Clear
11:53 PM 45.0 °F 38.5 °F 14.0 °F 29% 30.21 in 10.0 mi WSW 13.8 mph - N/A   Clear